GW1897 Weather Reports


Display with metric or nautical units.
time (UTC)temp
F
wind
direction
speed
MPH
gust
MPH
rain 1hr
in
rain 24hr
in
rain mn
in
humidity
%
barometer
mb
20260503174900 55 267 7.0 20.0 0.00 0.00 0.00 41 1012.6
20260503174128 54 192 6.0 20.0 0.00 0.00 0.00 38 1012.6
20260503173630 54 252 4.0 12.0 0.00 0.00 0.00 39 1012.6
20260503173129 54 323 3.0 12.0 0.00 0.00 0.00 43 1012.7
20260503172628 54 245 3.0 19.0 0.00 0.00 0.00 42 1012.8
20260503172127 54 229 5.0 19.0 0.00 0.00 0.00 40 1012.7
20260503171626 54 218 5.0 14.0 0.00 0.00 0.00 40 1012.7
20260503171126 54 250 3.0 14.0 0.00 0.00 0.00 41 1012.7
20260503170628 54 302 3.0 10.0 0.00 0.00 0.00 43 1012.8
20260503170128 53 273 4.0 12.0 0.00 0.00 0.00 42 1012.7
20260503150935 49 214 5.0 17.0 0.00 0.00 0.00 49 1013.5
20260503150707 50 233 2.0 17.0 0.00 0.00 0.00 48 1013.5
20260503150206 49 228 1.0 6.0 0.00 0.00 0.00 49 1013.4
20260503130838 45 321 1.0 7.0 0.00 0.00 0.00 58 1013.3
20260503130331 45 277 1.0 10.0 0.00 0.00 0.00 59 1013.2
20260503110722 43 231 1.0 3.0 0.00 0.00 0.00 64 1012.5
20260503110226 43 250 0.0 1.0 0.00 0.00 0.00 62 1012.3
20260503110222 43 250 0.0 2.0 0.00 0.00 0.00 64 1012.4
20260503100212 43 261 0.0 0.0 0.00 0.00 0.00 63 1011.4
20260503090153 41 319 0.0 0.0 0.00 0.00 0.00 64 1010.8
20260503081601 41 245 0.0 0.0 0.00 0.00 0.00 66 1010.6
20260503081054 42 245 0.0 1.0 0.00 0.00 0.00 66 1010.5
20260503080547 42 245 0.0 2.0 0.00 0.00 0.00 66 1010.5
20260503072501 44 245 0.0 0.0 0.00 0.00 0.00 63 1010.3
20260503072226 44 245 0.0 0.0 0.00 0.00 0.00 63 1010.4
20260503071447 44 245 0.0 1.0 0.00 0.00 0.00 62 1010.3
20260503070941 44 245 0.0 0.0 0.00 0.00 0.00 60 1010.3
20260503070436 44 245 0.0 0.0 0.00 0.00 0.00 60 1010.3
20260503060327 46 245 0.0 4.0 0.00 0.00 0.00 57 1010.7
20260503054823 46 269 0.0 3.0 0.00 0.00 0.00 57 1010.7
20260503054320 46 243 0.0 2.0 0.00 0.00 0.00 57 1010.7
20260503053819 46 243 0.0 2.0 0.00 0.00 0.00 55 1010.8
20260503053319 46 257 0.0 2.0 0.00 0.00 0.00 57 1010.9
20260503052814 46 262 0.0 3.0 0.00 0.00 0.00 56 1010.8
20260503052545 47 263 0.0 3.0 0.00 0.00 0.00 55 1010.8
20260503051812 47 262 0.0 0.0 0.00 0.00 0.00 55 1010.8
20260503051309 47 262 0.0 0.0 0.00 0.00 0.00 55 1010.8
20260503050806 47 262 0.0 2.0 0.00 0.00 0.00 55 1010.8
20260503050305 47 262 0.0 2.0 0.00 0.00 0.00 55 1010.9
20260503045805 47 244 0.0 0.0 0.00 0.00 0.00 54 1010.9
20260503045301 47 244 0.0 0.0 0.00 0.00 0.00 55 1011.1
20260503044802 47 244 0.0 0.0 0.00 0.00 0.00 56 1011.2
20260503044301 47 244 0.0 1.0 0.00 0.00 0.00 55 1011.1
20260503044032 47 244 0.0 1.0 0.00 0.00 0.00 54 1011.2
20260503043301 47 244 0.0 1.0 0.00 0.00 0.00 55 1011.3
20260503043029 47 244 0.0 1.0 0.00 0.00 0.00 56 1011.3
20260503042258 47 244 0.0 1.0 0.00 0.00 0.00 55 1011.3
20260503041753 47 244 0.0 3.0 0.00 0.00 0.00 54 1011.3
20260503041252 47 244 0.0 3.0 0.00 0.00 0.00 55 1011.3
20260503040752 48 244 0.0 4.0 0.00 0.00 0.00 55 1011.3
20260503040252 48 231 0.0 4.0 0.00 0.00 0.00 54 1011.3
20260503035751 48 231 0.0 3.0 0.00 0.00 0.00 54 1011.1
20260503035252 48 287 0.0 2.0 0.00 0.00 0.00 54 1011.2
20260503034752 48 291 0.0 2.0 0.00 0.00 0.00 54 1011.3
20260503034253 48 231 0.0 2.0 0.00 0.00 0.00 52 1011.2
20260503033753 48 221 0.0 2.0 0.00 0.00 0.00 55 1011.2
20260503033247 48 331 0.0 0.0 0.00 0.00 0.00 53 1011.2
20260503032747 48 333 0.0 0.0 0.00 0.00 0.00 53 1011.2
20260503032247 48 333 0.0 2.0 0.00 0.00 0.00 53 1011.2
20260503031749 49 333 0.0 3.0 0.00 0.00 0.00 54 1011.3
20260503031248 49 258 0.0 3.0 0.00 0.00 0.00 55 1011.3
20260503030748 49 236 0.0 1.0 0.00 0.00 0.00 53 1011.3
20260503030247 49 236 0.0 1.0 0.00 0.00 0.00 53 1011.3
20260503025747 49 237 0.0 2.0 0.00 0.00 0.00 52 1011.4
20260503025249 49 237 0.0 2.0 0.00 0.00 0.00 51 1011.4
20260503024741 49 244 0.0 0.0 0.00 0.00 0.00 51 1011.4
20260503024235 49 267 0.0 0.0 0.00 0.00 0.00 50 1011.5
20260503023729 49 267 0.0 1.0 0.00 0.00 0.00 49 1011.4
20260503023223 49 267 0.0 1.0 0.00 0.00 0.00 50 1011.4
20260503022718 50 267 0.0 1.0 0.00 0.00 0.00 51 1011.4
20260503022213 50 267 0.0 3.0 0.00 0.00 0.00 50 1011.4
20260503021705 50 267 0.0 3.0 0.00 0.00 0.00 50 1011.4
20260503021200 50 236 0.0 3.0 0.00 0.00 0.00 51 1011.4
20260503020653 50 311 0.0 3.0 0.00 0.00 0.00 50 1011.4
20260503020148 50 220 0.0 5.0 0.00 0.00 0.00 51 1011.4
20260503015642 50 254 0.0 5.0 0.00 0.00 0.00 49 1011.4
20260503015407 50 207 0.0 3.0 0.00 0.00 0.00 51 1011.2
20260503014901 50 250 0.0 3.0 0.00 0.00 0.00 49 1011.3
20260503014125 50 281 1.0 3.0 0.00 0.00 0.00 50 1011.3
20260503013617 50 236 1.0 5.0 0.00 0.00 0.00 49 1011.3
20260503013110 51 272 0.0 5.0 0.00 0.00 0.00 49 1011.3
20260503012604 51 244 0.0 3.0 0.00 0.00 0.00 50 1011.3
20260503012059 51 244 0.0 3.0 0.00 0.00 0.00 49 1011.3
20260503011551 51 250 0.0 2.0 0.00 0.00 0.00 49 1011.3
20260503011044 51 255 0.0 2.0 0.00 0.00 0.00 49 1011.3
20260503010537 51 248 0.0 1.0 0.00 0.00 0.00 48 1011.2
20260503010031 51 248 0.0 2.0 0.00 0.00 0.00 48 1011.1
20260503005756 52 248 1.0 4.0 0.00 0.00 0.00 47 1011.0
20260503005020 52 229 0.0 4.0 0.00 0.00 0.00 47 1010.8
20260503004513 52 248 0.0 3.0 0.00 0.00 0.00 47 1010.8
20260503004007 52 248 1.0 3.0 0.00 0.00 0.00 46 1010.7
20260503003732 52 231 0.0 3.0 0.00 0.00 0.00 48 1010.6
20260503002955 53 246 0.0 2.0 0.00 0.00 0.00 44 1010.6
20260503002450 53 217 0.0 2.0 0.00 0.00 0.00 45 1010.5
20260503001943 53 235 0.0 3.0 0.00 0.00 0.00 45 1010.5
20260503001438 53 242 0.0 3.0 0.00 0.00 0.00 44 1010.5
20260503001202 53 238 0.0 1.0 0.00 0.00 0.00 44 1010.4
20260503000656 54 238 0.0 1.0 0.00 0.00 0.00 43 1010.1
20260502235920 54 238 0.0 2.0 0.00 0.00 0.00 43 1010.4
20260502235413 54 238 0.0 2.0 0.00 0.00 0.00 43 1010.4
20260502234908 54 250 0.0 2.0 0.00 0.00 0.00 45 1010.4
20260502234403 55 250 0.0 2.0 0.00 0.00 0.00 43 1010.3
20260502233857 55 243 0.0 2.0 0.00 0.00 0.00 42 1010.3
20260502233350 55 256 0.0 7.0 0.00 0.00 0.00 44 1010.1
20260502233345 55 279 1.0 7.0 0.00 0.00 0.00 41 1010.1
20260502232338 56 259 0.0 5.0 0.00 0.00 0.00 41 1010.3
20260502231833 56 222 1.0 3.0 0.00 0.00 0.00 43 1010.4
20260502231557 56 280 1.0 2.0 0.00 0.00 0.00 39 1010.4
20260502230819 56 323 1.0 4.0 0.00 0.00 0.00 37 1010.5
20260502230314 56 302 1.0 5.0 0.00 0.00 0.00 39 1010.3
20260502225808 56 279 1.0 5.0 0.00 0.00 0.00 42 1010.1
20260502225532 56 327 0.0 4.0 0.00 0.00 0.00 42 1010.3
20260502224756 57 300 0.0 2.0 0.00 0.00 0.00 39 1010.3
20260502224250 57 283 0.0 3.0 0.00 0.00 0.00 38 1010.1
20260502224245 57 284 0.0 3.0 0.00 0.00 0.00 39 1010.1
20260502223238 57 188 0.0 2.0 0.00 0.00 0.00 43 1010.0
20260502222731 57 223 0.0 1.0 0.00 0.00 0.00 46 1010.1
20260502222226 57 223 0.0 2.0 0.00 0.00 0.00 42 1010.0
20260502221719 58 223 0.0 2.0 0.00 0.00 0.00 42 1010.1
20260502221215 58 338 0.0 1.0 0.00 0.00 0.00 38 1010.0
20260502220708 58 333 0.0 1.0 0.00 0.00 0.00 40 1010.0
20260502220201 58 348 0.0 1.0 0.00 0.00 0.00 41 1010.1
20260502215656 58 348 1.0 3.0 0.00 0.00 0.00 43 1010.3
20260502215422 58 348 1.0 3.0 0.00 0.00 0.00 39 1010.3
20260502214645 58 267 1.0 5.0 0.00 0.00 0.00 41 1010.4
20260502214137 58 242 1.0 5.0 0.00 0.00 0.00 39 1010.1
20260502213904 58 226 1.0 4.0 0.00 0.00 0.00 39 1010.1
20260502213125 58 230 1.0 4.0 0.00 0.00 0.00 39 1010.4
20260502212626 58 320 1.0 4.0 0.00 0.00 0.00 37 1010.3
20260502212122 58 329 1.0 5.0 0.00 0.00 0.00 36 1010.1
20260502211623 59 223 1.0 5.0 0.00 0.00 0.00 37 1010.1
20260502211123 59 289 1.0 5.0 0.00 0.00 0.00 41 1010.0
20260502210622 59 310 1.0 5.0 0.00 0.00 0.00 39 1009.8
20260502210122 60 188 2.0 9.0 0.00 0.00 0.00 39 1009.8
20260502205852 60 233 2.0 9.0 0.00 0.00 0.00 40 1009.8
20260502205120 60 143 2.0 9.0 0.00 0.00 0.00 40 1009.8
20260502204852 60 300 2.0 11.0 0.00 0.00 0.00 38 1009.8
20260502204118 59 289 2.0 11.0 0.00 0.00 0.00 41 1009.9
20260502203617 59 310 1.0 4.0 0.00 0.00 0.00 37 1009.9
20260502203115 58 231 2.0 6.0 0.00 0.00 0.00 42 1010.0
20260502202615 58 236 2.0 6.0 0.00 0.00 0.00 43 1010.0
20260502202115 58 227 1.0 7.0 0.00 0.00 0.00 40 1010.0
20260502201617 58 258 2.0 7.0 0.00 0.00 0.00 42 1010.1
20260502201346 59 262 2.0 6.0 0.00 0.00 0.00 42 1010.3
20260502200615 60 288 2.0 6.0 0.00 0.00 0.00 40 1010.3
20260502200116 60 180 3.0 13.0 0.00 0.00 0.00 42 1010.4
20260502195614 61 215 4.0 13.0 0.00 0.00 0.00 38 1010.3
20260502195346 61 227 4.0 13.0 0.00 0.00 0.00 40 1010.5
20260502194614 61 229 3.0 13.0 0.00 0.00 0.00 41 1010.4
20260502194115 61 336 2.0 8.0 0.00 0.00 0.00 38 1010.6
20260502193614 61 230 2.0 8.0 0.00 0.00 0.00 38 1010.6
20260502193120 61 269 3.0 10.0 0.00 0.00 0.00 38 1010.6
20260502193115 61 265 2.0 9.0 0.00 0.00 0.00 38 1010.7
20260502192346 61 206 4.0 10.0 0.00 0.00 0.00 42 1010.8
20260502191845 61 192 3.0 12.0 0.00 0.00 0.00 38 1010.8
20260502191116 60 261 4.0 12.0 0.00 0.00 0.00 40 1010.9
20260502190616 60 265 2.0 11.0 0.00 0.00 0.00 41 1010.9
20260502190113 59 245 1.0 6.0 0.00 0.00 0.00 39 1011.0
20260502185614 59 321 2.0 9.0 0.00 0.00 0.00 38 1011.0
20260502185112 59 198 2.0 9.0 0.00 0.00 0.00 33 1011.2
20260502184613 59 213 2.0 8.0 0.00 0.00 0.00 36 1011.2
20260502184112 58 267 2.0 8.0 0.00 0.00 0.00 40 1011.3
20260502183607 58 232 1.0 3.0 0.00 0.00 0.00 47 1011.3
20260502183331 57 355 1.0 4.0 0.00 0.00 0.00 43 1011.2
20260502182552 57 352 1.0 7.0 0.00 0.00 0.00 42 1011.3
20260502182319 57 358 1.0 7.0 0.00 0.00 0.00 43 1011.4
20260502181540 57 342 0.0 3.0 0.00 0.00 0.00 42 1011.3
20260502181035 57 355 1.0 5.0 0.00 0.00 0.00 45 1011.3
20260502180529 57 355 1.0 5.0 0.00 0.00 0.00 44 1011.4